DW3147 Weather Reports


Display with metric or nautical units.
time (UTC)temp
F
wind
direction
speed
MPH
gust
MPH
rain 1hr
in
rain 24hr
in
rain mn
in
humidity
%
barometer
mb
20260506090046 56 113 4.0 9.0 0.00 0.00 0.00 85 1015.4
20260506085048 56 102 4.0 9.0 0.00 0.00 0.00 84 1015.4
20260506083047 56 100 3.0 8.0 0.00 0.00 0.00 84 1015.2
20260506082046 57 88 2.0 11.0 0.00 0.00 0.00 84 1015.3
20260506081047 57 94 4.0 9.0 0.00 0.00 0.00 84 1015.2
20260506073046 57 106 3.0 6.0 0.00 0.00 0.00 85 1014.8
20260506071046 56 125 0.0 4.0 0.00 0.00 0.00 87 1014.7
20260506062047 56 97 0.0 0.0 0.00 0.00 0.00 85 1014.4
20260506061046 56 97 0.0 2.0 0.00 0.00 0.00 85 1014.3
20260506051046 57 93 0.0 0.0 0.00 0.00 0.00 83 1013.9
20260506045045 57 135 0.0 0.0 0.00 0.00 0.00 82 1013.9
20260506044046 57 173 0.0 0.0 0.00 0.00 0.00 82 1013.8
20260506043045 58 173 0.0 0.0 0.00 0.00 0.00 81 1013.8
20260506042044 58 173 0.0 0.0 0.00 0.00 0.00 81 1013.7
20260506041045 58 173 0.0 0.0 0.00 0.00 0.00 80 1013.6
20260506032044 61 173 0.0 1.0 0.00 0.00 0.00 75 1013.1
20260506031044 62 173 0.0 3.0 0.00 0.00 0.00 72 1013.1
20260506025045 62 169 1.0 5.0 0.00 0.00 0.00 71 1012.8
20260506024045 63 156 1.0 4.0 0.00 0.00 0.00 70 1013.0
20260506023045 63 137 1.0 6.0 0.00 0.00 0.00 69 1012.9
20260506021044 64 201 0.0 7.0 0.00 0.00 0.00 67 1013.0
20260506020044 64 194 4.0 7.0 0.00 0.00 0.00 68 1012.9
20260506015044 64 122 5.0 8.0 0.00 0.00 0.00 67 1013.0
20260506014045 65 162 5.0 10.0 0.00 0.00 0.00 67 1012.9
20260506013045 65 196 2.0 8.0 0.00 0.00 0.00 66 1012.9
20260506010044 66 130 7.0 8.0 0.00 0.00 0.00 66 1013.1
20260506004044 66 181 7.0 9.0 0.00 0.00 0.00 66 1013.0
20260506003043 66 155 1.0 8.0 0.00 0.00 0.00 66 1013.0
20260506002045 67 204 7.0 9.0 0.00 0.00 0.00 64 1013.0
20260506001044 67 161 2.0 9.0 0.00 0.00 0.00 64 1013.0
20260505234044 69 192 2.0 9.0 0.00 0.00 0.00 63 1013.4
20260505233044 68 184 5.0 9.0 0.00 0.00 0.00 64 1013.3
20260505232043 68 170 6.0 11.0 0.00 0.00 0.00 64 1013.5
20260505231043 69 182 3.0 9.0 0.00 0.00 0.00 62 1013.6
20260505230043 69 129 4.0 10.0 0.00 0.00 0.00 62 1013.8
20260505225044 68 255 4.0 9.0 0.00 0.00 0.00 63 1013.8
20260505224044 69 143 3.0 8.0 0.00 0.00 0.00 62 1013.9
20260505223043 69 120 3.0 10.0 0.00 0.00 0.00 64 1014.0
20260505222043 69 120 4.0 10.0 0.00 0.00 0.00 62 1013.9
20260505221043 68 209 1.0 9.0 0.00 0.00 0.00 64 1014.0
20260505220043 68 205 7.0 7.0 0.00 0.00 0.00 64 1014.1
20260505215044 67 144 5.0 9.0 0.00 0.00 0.00 66 1014.1
20260505214043 68 243 4.0 7.0 0.00 0.00 0.00 64 1014.2
20260505213043 68 202 3.0 9.0 0.00 0.00 0.00 64 1014.2
20260505212044 67 192 3.0 8.0 0.00 0.00 0.00 67 1014.2
20260505211043 67 211 7.0 10.0 0.00 0.00 0.00 66 1014.2
20260505210043 67 159 2.0 7.0 0.00 0.00 0.00 66 1014.3
20260505205044 68 238 2.0 10.0 0.00 0.00 0.00 64 1014.5
20260505204043 66 221 4.0 9.0 0.00 0.00 0.00 68 1014.5
20260505203043 66 233 7.0 9.0 0.00 0.00 0.00 67 1014.5
20260505202042 65 130 1.0 7.0 0.00 0.00 0.00 68 1014.6
20260505201042 65 157 6.0 8.0 0.00 0.00 0.00 69 1014.6
20260505200043 66 150 1.0 9.0 0.00 0.00 0.00 67 1014.6
20260505194043 63 170 4.0 9.0 0.00 0.00 0.00 73 1014.5
20260505193044 64 202 4.0 11.0 0.00 0.00 0.00 73 1014.6
20260505192043 63 107 3.0 8.0 0.00 0.00 0.00 74 1014.5
20260505190043 62 196 5.0 9.0 0.00 0.00 0.00 77 1014.6
20260505185043 61 192 5.0 7.0 0.00 0.00 0.00 78 1014.6
20260505184043 60 179 4.0 9.0 0.00 0.00 0.00 80 1014.7
20260505183041 60 188 2.0 10.0 0.00 0.00 0.00 80 1014.6
20260505182042 60 189 3.0 9.0 0.00 0.00 0.00 79 1014.6
20260505181042 60 209 1.0 10.0 0.00 0.00 0.00 79 1014.4
20260505180041 60 202 4.0 12.0 0.00 0.00 0.00 79 1014.4
20260505175041 59 165 2.0 10.0 0.00 0.00 0.00 80 1014.4
20260505174041 60 240 4.0 9.0 0.00 0.00 0.00 79 1014.4
20260505173041 60 237 2.0 7.0 0.00 0.00 0.00 79 1014.4
20260505172041 61 178 4.0 8.0 0.00 0.00 0.00 78 1014.5
20260505171041 60 190 4.0 11.0 0.00 0.00 0.00 78 1014.3
20260505170041 61 188 2.0 10.0 0.00 0.00 0.00 77 1014.4
20260505164041 61 105 6.0 7.0 0.00 0.00 0.00 76 1014.4
20260505163041 60 154 6.0 6.0 0.00 0.00 0.00 78 1014.3
20260505162041 59 196 0.0 6.0 0.00 0.00 0.00 80 1014.4
20260505161041 58 165 0.0 6.0 0.00 0.00 0.00 80 1014.2
20260505153041 58 92 7.0 9.0 0.00 0.00 0.00 81 1014.2
20260505152042 58 113 2.0 7.0 0.00 0.00 0.00 81 1014.0
20260505125040 56 108 1.0 7.0 0.00 0.00 0.00 79 1012.6
20260505124040 56 87 0.0 6.0 0.00 0.00 0.00 78 1012.4
20260505123040 56 105 2.0 7.0 0.00 0.00 0.00 77 1012.3
20260505120040 57 103 2.0 4.0 0.00 0.00 0.00 75 1012.1
20260505115039 57 119 2.0 4.0 0.00 0.00 0.00 75 1012.1
20260505114040 57 116 0.0 9.0 0.00 0.00 0.00 74 1012.0
20260505112041 57 70 0.0 8.0 0.00 0.00 0.00 72 1011.7
20260505111040 58 13 1.0 11.0 0.00 0.00 0.00 71 1011.6
20260505102040 59 86 4.0 8.0 0.00 0.00 0.00 73 1011.1
20260505100039 59 111 4.0 6.0 0.00 0.00 0.00 78 1010.9
20260505095040 59 107 1.0 4.0 0.00 0.00 0.00 76 1010.7
20260505094039 60 106 1.0 6.0 0.00 0.00 0.00 75 1010.7
20260505093039 60 105 2.0 6.0 0.00 0.00 0.00 74 1010.6
20260505091039 61 101 3.0 6.0 0.00 0.00 0.00 72 1010.5